Location: East Horndon
(51.5667°N, 0.3500°E)
Time: 12:16:52
(UTC+00:00)

SL-24 R/B - RUBIN 2 - Pass Details

Date: 08 November 2025
Orbit: 599 x 987 km, 64.6° (Epoch: 10 December)

Event Time Altitude Azimuth Distance (km) Brightness Sun altitude
Exits shadow 04:39:27 55° 245° (WSW) 898 4.0 -22.7°
Maximum altitude 04:40:32 76° 314° (NW) 765 3.8 -22.5°
Drops below altitude 10° 04:45:25 10° 41° (NE) 2,139 6.8 -21.8°
Sets 04:47:38 0° 43° (NE) 3,008 7.7 -21.4°
